Other Public Products
Issued by NWS Grand Forks, ND

Home | Current Version | Previous Version | Text Only | Print | Product List | Glossary Off
Versions: 1 2 3 4 5 6 7 8 9 10 11 12 13 14 15 16 17 18 19 20 21 22 23 24 25 26 27 28 29 30 31 32 33 34 35 36 37 38 39 40 41 42 43 44 45 46 47 48 49 50

000
FPUS83 KFGF 271531
OPUFGF
PRAIRIE TO PINES WEATHER ROUNDUP
NATIONAL WEATHER SERVICE EASTERN NORTH DAKOTA/GRAND FORKS ND
900 AM CST TUE JAN 27 2015

 **SATELLITE DATA USED TO AUGMENT SKY COVER AT AUTOMATED STATIONS**
 *****  WEATHER ACROSS EASTERN NORTH DAKOTA  *****

CITY           SKY/WX    TMP DP  RH WIND       PRES   REMARKS
GRAND FORKS    FOG       27  26  96 S7        30.05R VSB 3/4 WCI  19
GRAND FORKS AF CLOUDY    26  24  94 S8        30.05R WCI  17
GRAND CITY NWS NOT AVBL
BUXTON           N/A     26  26  99 SE9         N/A  WCI  17
DEVILS LAKE    CLEAR     27  25  93 SE10      29.94F WCI  17
FARGO          FOG       28  26  92 S13G20    30.07R VSB 1   WCI  17
WAHPETON ARPT  CLOUDY    28  27  93 SE12      30.09R VSB 1/2 WCI  18
$$

 *****  WEATHER ACROSS CENTRAL AND WESTERN NORTH DAKOTA  *****

CITY           SKY/WX    TMP DP  RH WIND       PRES   REMARKS
JAMESTOWN      PTCLDY    29  27  92 S9        29.97F WCI  20
BISMARCK       CLEAR     30  28  92 SE7       29.91S WCI  23
MINOT          PTCLDY    29  25  85 SE3       29.84S
MINOT AFB      PTCLDY    26  26 100 SE7       29.84S WCI  18
GARRISON         N/A     31  29  92 S6        29.85S
WILLISTON      MOCLDY    28  26  92 S3        29.84R
DICKINSON      CLEAR     38  30  73 W8        29.84R
HETTINGER      PTCLDY    35  28  75 CALM      29.89S
$$

 *****  OTHER OBSERVATIONS NORTHEAST NORTH DAKOTA  *****

CITY           SKY/WX    TMP DP  RH WIND       PRES   REMARKS
WALHALLA         N/A     27  27 100 SE8       29.99S WCI  18
LANGDON        CLOUDY    30  30 100 S17       29.94S WCI  18
CAVALIER       CLOUDY    25  25 100 S9        30.01S FOG     WCI  15
GRAFTON        NOT AVBL
CANDO          FAIR      27  27 100 SE12      29.93F WCI  16
FORT TOTTEN    NOT AVBL
ROLLA          FAIR      27  27 100 S7        29.90F WCI  19
RUGBY          FAIR      32  28  86 SE14      29.89S WCI  22
 ***** THE ABOVE OBSERVATIONS ARE NON NWS ARE NOT QUALITY
        CONTROLLED AND MAY MIS-REPORT RAIN FOR SNOW...
$$

 *****  OTHER OBSERVATIONS SOUTHEAST NORTH DAKOTA *****

CITY           SKY/WX    TMP DP  RH WIND       PRES   REMARKS
COOPERSTOWN    NOT AVBL
VALLEY CITY    MIX PCPN  27  27 100 S14       30.00F VSB 1/2 WCI  15
OAKES            N/A     28  28 100 SE9       30.03R WCI  20
GWINNER        CLOUDY    30  30 100 SE9       30.05S VSB 0   WCI  22
BUFFALO        NOT AVBL
WYNDMERE         N/A     28  28 100 SE8         N/A  WCI  20
 ***** THE ABOVE OBSERVATIONS ARE NON NWS ARE NOT QUALITY
       CONTROLLED AND MAY MIS-REPORT RAIN FOR SNOW...
$$

  *****  WEATHER ACROSS NORTHERN MINNESOTA  *****

CITY           SKY/WX    TMP DP  RH WIND       PRES   REMARKS
FLAG ISLAND    CLOUDY    21  21 100 S7        30.06R FOG     WCI  13
WARROAD        CLOUDY    21  18  86 S3        30.07R FOG
ROSEAU         CLOUDY    25  19  80 S3        30.06S FOG
HALLOCK        FOG       27  25  93 S8        30.04R VSB 3/4 WCI  18
THF RVR FALLS  CLOUDY    27  25  93 S8        30.06S VSB 1/2 WCI  18
HALSTAD          N/A     27  27  99 S12         N/A  WCI  16
FOSSTON        CLOUDY    23  21  93 S8        30.07S WCI  14
BAUDETTE       CLOUDY    24  22  91 S10       30.07R FOG     WCI  14
WASKISH        CLOUDY    27  25  93 CALM      30.09R
CROOKSTON      CLOUDY    27  27 100 S9        30.08S FOG     WCI  17
$$
  *****  WEATHER ACROSS CENTRAL AND WEST MINNESOTA  *****

CITY           SKY/WX    TMP DP  RH WIND       PRES   REMARKS
BEMIDJI        CLOUDY    25  25  97 S7        30.07R WCI  18
PARK RAPIDS    CLOUDY    27  25  92 S8        30.07S WCI  19
WADENA         CLOUDY    27  25  93 S7        30.10R WCI  19
DETROIT LAKES  MIX PCPN  28  27  93 SE9       30.08R WCI  20
MOORHEAD       CLOUDY    28  28 100 S13       30.09R FOG     WCI  18
FERGUS FALLS   FOG       27  27 100 SE12      30.11F VSB 1   WCI  16
ELBOW LAKE     CLOUDY    28  28 100 SE13      30.09S FOG     WCI  17
MORRIS MN      CLOUDY    28  28 100 SE14      30.10R FOG     WCI  17
STAPLES        CLOUDY    28  25  86 SE5       30.09S WCI  23
WHEATON        FOG       27  27 100 SE10      30.11S VSB 1/2 WCI  17
$$
  *****  WEATHER ELSEWHERE ACROSS MINNESOTA  *****

CITY           SKY/WX    TMP DP  RH WIND       PRES   REMARKS
DULUTH         CLOUDY    25  21  85 SE3       30.10S
INTRNTL FALLS  CLOUDY    23  21  92 SW6       30.09R WCI  16
ELY            CLOUDY    23  21  93 SW3       30.10R
CLOQUET        CLOUDY    27  21  80 CALM      30.12S
BRAINERD       CLOUDY    29  24  82 SE5       30.11R WCI  24
HIBBING        CLOUDY    25  21  85 S3        30.10R
ALEXANDRIA     CLOUDY    29  26  89 SE9       30.10R WCI  20
SAINT CLOUD    CLOUDY    31  26  82 SE3       30.13R
MINNEAPOLIS    CLOUDY    32  24  72 E7        30.16R
$$

  *****  WEATHER ACROSS SOUTH DAKOTA  *****

CITY           SKY/WX    TMP DP  RH WIND       PRES   REMARKS
SIOUX FALLS    FOG       30  29  96 SE8       30.09S VSB 1/4 WCI  22
BROOKINGS      NOT AVBL
WATERTOWN      CLEAR     30  28  92 S8        30.04S WCI  22
HURON          CLEAR     31  29  92 SE10      30.03F WCI  22
SISSETON         N/A     29  29 100 S14       30.06F WCI  18
ABERDEEN       CLEAR     32  29  88 SE8       30.03R WCI  25
MITCHELL       CLEAR     33  31  92 SE12      30.06S WCI  24
PIERRE         CLEAR     32  29  88 SE8       29.95R WCI  25
MOBRIDGE       CLEAR     32  29  88 SE9       29.92S WCI  24
RAPID CITY     PTCLDY    51  25  36 NW13      29.96R
$$

  *****  SOME WEATHER IN NEARBY STATES *****

CITY           SKY/WX    TMP DP  RH WIND       PRES   REMARKS
GLASGOW MT     PTCLDY    35  29  78 S5        29.84S
GREAT FALLS MT CLOUDY    47  28  47 SW13      29.90S
CHEYENNE WY    PTCLDY    48  19  31 W13       30.16S
SCOTTSBLUFF NE   N/A    N/A N/A N/A MISG      30.08S
OMAHA NE       MOSUNNY   32  30  92 E3        30.14R
DES MOINES IA  MOSUNNY   35  30  82 NE5       30.15R
DAVENPORT IA   CLOUDY    29  22  75 NE13      30.15R WCI  19
CHICAGO IL     CLOUDY    28  20  71 NE9       30.13R WCI  19
EAU CLAIRE WI  CLOUDY    27  22  81 CALM      30.16R
LA CROSSE WI   CLOUDY    30  21  69 NE5       30.17R
$$

  *****  SOME NATIONAL WEATHER *****

CITY           SKY/WX    TMP DP  RH WIND       PRES   REMARKS
LA GUARDIA NY  FLURRIES  23  16  74 NW18G26   29.68F WCI   9
RALEIGH NC     PTSUNNY   34  19  54 VRB5      29.83R
ATLANTA GA     MOSUNNY   40  31  70 NW12      29.92R
NEW ORLEANS LA MOSUNNY   57  44  62 NW8       30.13R
OKLAHOMA CITY  MOSUNNY   52  36  54 W3        30.17R
ALBUQUERQUE NM PTCLDY    29  24  82 SE7       30.38R WCI  22
SALT LAKE CITY MOCLDY    31  29  92 CALM      30.20R
LOS ANGELES CA MOCLDY    58  54  86 VRB3      30.18R
BOISE ID       FOG       28  27  96 CALM      30.11R VSB 1/4
SEATTLE WA     CLOUDY    50  46  86 S5        30.02R
$$

*** WEATHER ACROSS MANITOBA...SASKATCHEWAN AND ONTARIO ***
                ***ONTARIO***

CITY           SKY/WX    TMP DP  RH WIND       PRES   REMARKS
GERALDTON      FLURRIES  19  16  86 S5        30.10S WCI  13
THUNDER BAY    FLURRIES  21  19  93 W5        30.15R WCI  15
SIOUX LOOKOUT  CLOUDY    19  18  93 SW8       30.05S WCI   9
TORONTO        PTSUNNY   12   5  73 N12       30.08S WCI  -2
BIG TROUT LK   FLURRIES  19  18  93 SW12G18   29.88S WCI   7
PICKLE LAKE    MOCLDY    19  16  86 SW7       29.99S WCI  10
DRYDEN         CLOUDY    18  18 100 SW10      30.05R WCI   6
KENORA         FOG       19  18  93 S10       30.04R VSB 1/4 WCI   8
$$
                *** MANITOBA***

CITY           SKY/WX    TMP DP  RH WIND       PRES   REMARKS
BRANDON        MOCLDY    27  25  93 E5        29.87F WCI  21
DAUPHIN        CLOUDY    36  32  87 W9        29.83S
ISLAND LAKE    FLURRIES  25  23  93 SW6       29.85S WCI  18
PILOT MOUND      N/A     30  28  93 S14         N/A  WCI  20
THE PAS        CLOUDY    19  18  93 N5        29.87R FOG     WCI  13
THOMPSON       PTCLDY    14   9  79 N14G23    29.87R WCI  -1
WINNIPEG       CLOUDY    23  21  93 S16       30.00R WCI  10
LYNN LAKE      CLOUDY     3   0  85 NW10G21   29.93R WCI -12
CHURCHILL      MOCLDY     3   0  85 NW31G43   29.77R BLWGSNOWWCI -22
GILLAM         FLURRIES  19  16  86 NW17G26   29.78R WCI   4
$$
                ***SASKATCHEWAN***

CITY           SKY/WX    TMP DP  RH WIND       PRES   REMARKS
ESTEVAN        CLOUDY    25  23  93 SE5       29.80S WCI  19
KINDERSLEY     MOCLDY    25  21  86 NE8       29.80R WCI  16
LLOYDMINSTER   MOCLDY    32  30  93 NE2       29.80R
PRINCE ALBERT  CLOUDY    30  28  93 CALM      29.85R
REGINA         CLOUDY    25  25 100 SE10      29.77F WCI  15
YORKTON        CLOUDY    30  28  93 NE3       29.81R


USA.gov is the U.S. government's official web portal to all federal, state and local government web resources and services.